This is the latest recevied weather packets stored in our database for station/object K4CRS-13. If no packets are shown the sender has not sent any weather packets the latest 10 day(s).
| Time | Temp. | Humidity | Pressure | Rain* | Wind** | Luminosity | Snow |
|---|---|---|---|---|---|---|---|
| 1787528832 | 28.89° C | 65% | 1050.4 hPa | 0 mm | - | 38 W/m² | - |
| 1787528527 | 28.89° C | 64% | 1050.6 hPa | 0 mm | - | 47 W/m² | - |
| 1787528222 | 29.44° C | 63% | 1050.5 hPa | 0 mm | - | 59 W/m² | - |
| 1787527919 | 29.44° C | 63% | 1050.7 hPa | 0 mm | - | 79 W/m² | - |
| 1787527615 | 29.44° C | 63% | 1050.5 hPa | 0 mm | - | 95 W/m² | - |
| 1787527310 | 30° C | 63% | 1050.6 hPa | 0 mm | - | 97 W/m² | - |
| 1787527005 | 29.44° C | 62% | 1050.7 hPa | 0 mm | - | 106 W/m² | - |
| 1787526701 | 30° C | 60% | 1050.3 hPa | 0 mm | - | 104 W/m² | - |
| 1787526398 | 30° C | 59% | 1050.4 hPa | 0 mm | - | 98 W/m² | - |
| 1787526094 | 30° C | 59% | 1050.2 hPa | 0 mm | - | 121 W/m² | - |
| 1787525790 | 30.56° C | 61% | 1050.2 hPa | 0 mm | - | 130 W/m² | - |
| 1787525490 | 30.56° C | 57% | 1050.3 hPa | 0 mm | - | 136 W/m² | - |
| 1787525185 | 30.56° C | 57% | 1050.3 hPa | 0 mm | - | 145 W/m² | - |
| 1787524881 | 30.56° C | 57% | 1050.3 hPa | 0 mm | - | 145 W/m² | - |
| 1787524576 | 30.56° C | 57% | 1050.4 hPa | 0 mm | - | 158 W/m² | - |
| 1787524276 | 30.56° C | 58% | 1050.4 hPa | 0 mm | - | 181 W/m² | - |
| 1787523972 | 30.56° C | 58% | 1050.5 hPa | 0 mm | - | 186 W/m² | - |
| 1787523667 | 30.56° C | 58% | 1050.4 hPa | 0 mm | - | 220 W/m² | - |
| 1787523367 | 30.56° C | 60% | 1050.6 hPa | 0 mm | - | 244 W/m² | - |
| 1787523062 | 30.56° C | 59% | 1050.6 hPa | 0 mm | - | 132 W/m² | - |
| 1787522758 | 30.56° C | 59% | 1050.5 hPa | 0 mm | - | 116 W/m² | - |
| 1787522454 | 30.56° C | 59% | 1050.6 hPa | 0 mm | - | 177 W/m² | - |
| 1787522149 | 31.11° C | 59% | 1050.7 hPa | 0 mm | - | 307 W/m² | - |
| 1787521848 | 30.56° C | 59% | 1050.8 hPa | 0 mm | - | 366 W/m² | - |
| 1787521542 | 30.56° C | 59% | 1050.7 hPa | 0 mm | - | 164 W/m² | - |
* Rain latest hour (hover to see other rain measurements)
** Current wind speed in m/s (hover to see current wind gust speed)